CZ-11 DEB

Last updated on Tue Dec 09 2025 00:02:05 GMT+0000 (Coordinated Universal Time)

1 66377U 25255B 25342.65521068 .00040169 00000+0 86596-3 0 9993 2 66377 52.9948 197.3210 0013887 26.3780 333.7929 15.44112254 4586

Satellite not in orbit